Find Starlink 36934

NORAD ID: 68279 Int'l Des: 2026-055 Owner: SPXS Country: US Constellation: starlink operational
LEOCIRCULAR

Live Position

Loading 3D Globe...

About Starlink 36934

Description loading...

Upcoming Passes

Passes for default location (London). Set your location on the main map for personalized predictions.

Altitude History

Loading altitude history...

Two-Line Element Set

1 68279U 26055T 26123.82957176 .00018773 00000-0 43920-3 0 9996
2 68279 53.1615 63.8248 0001503 104.5336 255.5837 15.42199563 8364
Epoch: May 3, 2026 • Age: 12 hours

Current Status

Altitude 450.7 km
Velocity 7.64 km/s
Sub-Earth Point -32.82°S, 47.93°E
Launch Date Mar 19, 2026
Age 0.1 years
Type internet

Technical Details

Classification Payload
Mass 575.00 kg
Dry Mass 530.00 kg
Total Mass 575.00 kg
Length 0.30 m
Diameter 4.10 m
Span 29.00 m
Shape Box + pan
Manufacturer SPXS
Bus Type Starlink V2MO
Phase Status In Orbit
Owner/State SPXS/US

Most Searched